Tracking 19854 objects as of 21-Sep-2019
HD Live streaming from Space Station
objects crossing your sky now

CZ-4C DEB

Track CZ-4C DEB now!
10-day predictions


NORAD ID: 44212
Int'l Code: 2019-024F
Perigee: 506.5 km
Apogee: 519.9 km
Inclination: 97.5 °
Period: 94.7 minutes
Semi major axis: 6884 km
RCS: Unknown
Launch date: April 29, 2019
Source: People's Republic of China (PRC)
Launch site: Taiyaun Space Center, China (TSC)

Note: This is SATELLITE DEBRIS
aabbcc
Your satellite tracking list
Your tracking list is empty




NASA's NSSDC Master Catalog

Two Line Element Set (TLE):
1 44212U 19024F   19263.99338761  .00001231  00000-0  60452-4 0  9994
2 44212  97.4646 269.9958 0009767 166.2824 193.8684 15.19925427 21789
Source of the keplerian elements: AFSPC